Location: Caserta
(41.0670°N, 14.3330°E)
Time: 04:28:09
(UTC+02:00)

STARLINK-1341 - Pass Details

Date: 07 October 2020
Orbit: 549 x 550 km, 53.0° (Epoch: 20 October)

Event Time Altitude Azimuth Distance (km) Brightness Sun altitude
Exits shadow 03:57:10 11° 32° (NNE) 1,753 6.8 -35.4°
Drops below altitude 10° 03:57:18 11° 33° (NNE) 1,793 6.8 -35.4°
Sets 03:59:59 0° 49° (NE) 2,721 8.1 -34.9°
